CW4427 Weather Reports


Display with metric or nautical units.
time (UTC)temp
F
wind
direction
speed
MPH
gust
MPH
rain 1hr
in
rain 24hr
in
rain mn
in
humidity
%
barometer
mb
20260905211347 100 42 1.0 7.0 0.00 0.00 0.00 42 1010.6
20260905210847 101 24 3.0 8.0 0.00 0.00 0.00 42 1010.8
20260905210347 100 173 1.0 8.0 0.00 0.00 0.00 42 1010.7
20260905205848 100 109 4.0 7.0 0.00 0.00 0.00 43 1010.9
20260905204847 101 57 0.0 10.0 0.00 0.00 0.00 43 1011.0
20260905204348 100 28 2.0 10.0 0.00 0.00 0.00 43 1011.0
20260905203847 100 11 2.0 10.0 0.00 0.00 0.00 43 1010.9
20260905203347 99 28 2.0 14.0 0.00 0.00 0.00 43 1011.2
20260905202348 99 29 6.0 10.0 0.00 0.00 0.00 44 1011.4
20260905201847 98 84 5.0 8.0 0.00 0.00 0.00 44 1011.4
20260905200847 99 350 2.0 7.0 0.00 0.00 0.00 43 1011.5
20260905200347 100 76 1.0 10.0 0.00 0.00 0.00 42 1011.5
20260905195847 101 132 3.0 10.0 0.00 0.00 0.00 40 1011.5
20260905195347 101 207 1.0 8.0 0.00 0.00 0.00 42 1011.8
20260905193847 100 121 8.0 9.0 0.00 0.00 0.00 42 1011.9
20260905193347 100 116 6.0 8.0 0.00 0.00 0.00 43 1012.0
20260905192847 101 109 3.0 7.0 0.00 0.00 0.00 43 1012.1
20260905192347 99 40 2.0 5.0 0.00 0.00 0.00 45 1012.1
20260905191847 99 31 3.0 8.0 0.00 0.00 0.00 44 1012.1
20260905191347 100 127 4.0 9.0 0.00 0.00 0.00 42 1012.2
20260905190847 100 26 3.0 9.0 0.00 0.00 0.00 43 1012.4
20260905190347 101 22 4.0 7.0 0.00 0.00 0.00 42 1012.3
20260905184847 100 117 7.0 12.0 0.00 0.00 0.00 45 1012.5
20260905184347 99 142 0.0 10.0 0.00 0.00 0.00 47 1012.5
20260905183847 99 28 2.0 11.0 0.00 0.00 0.00 46 1012.6
20260905183347 100 43 5.0 11.0 0.00 0.00 0.00 46 1012.6
20260905182347 100 24 3.0 11.0 0.00 0.00 0.00 45 1012.8
20260905181347 100 99 0.0 9.0 0.00 0.00 0.00 45 1012.9
20260905180347 99 53 2.0 10.0 0.00 0.00 0.00 46 1012.9
20260905175847 99 25 0.0 12.0 0.00 0.00 0.00 45 1012.9
20260905175347 100 88 3.0 12.0 0.00 0.00 0.00 45 1013.0
20260905174846 100 360 4.0 9.0 0.00 0.00 0.00 46 1013.1
20260905174347 101 344 2.0 8.0 0.00 0.00 0.00 52 1013.1
20260905172846 99 105 6.0 9.0 0.00 0.00 0.00 48 1013.2
20260905172346 99 58 7.0 9.0 0.00 0.00 0.00 47 1013.3
20260905171847 98 12 2.0 8.0 0.00 0.00 0.00 51 1013.2
20260905171346 99 237 3.0 8.0 0.00 0.00 0.00 54 1013.2
20260905170346 98 106 4.0 6.0 0.00 0.00 0.00 52 1013.5
20260905165846 98 30 3.0 6.0 0.00 0.00 0.00 52 1013.5
20260905165346 97 103 2.0 6.0 0.00 0.00 0.00 52 1013.5
20260905164846 98 43 0.0 9.0 0.00 0.00 0.00 52 1013.6
20260905164347 97 11 4.0 9.0 0.00 0.00 0.00 53 1013.8
20260905163846 96 117 6.0 6.0 0.00 0.00 0.00 55 1013.8
20260905163347 96 65 2.0 5.0 0.00 0.00 0.00 55 1013.9
20260905162846 96 24 2.0 6.0 0.00 0.00 0.00 56 1013.9
20260905162347 97 42 4.0 6.0 0.00 0.00 0.00 53 1014.0
20260905161846 97 5 1.0 6.0 0.00 0.00 0.00 55 1014.2
20260905161346 98 263 0.0 6.0 0.00 0.00 0.00 58 1014.1
20260905160846 96 325 1.0 8.0 0.00 0.00 0.00 55 1014.1
20260905160347 96 331 0.0 8.0 0.00 0.00 0.00 58 1014.1
20260905155846 96 42 1.0 5.0 0.00 0.00 0.00 56 1014.1
20260905155346 95 61 1.0 8.0 0.00 0.00 0.00 57 1014.2
20260905154846 95 24 5.0 8.0 0.00 0.00 0.00 59 1014.2
20260905154346 94 13 1.0 5.0 0.00 0.00 0.00 59 1014.2
20260905153846 94 284 3.0 5.0 0.00 0.00 0.00 60 1014.1
20260905153346 93 336 1.0 6.0 0.00 0.00 0.00 61 1014.1
20260905152846 93 17 1.0 6.0 0.00 0.00 0.00 62 1014.2
20260905152347 93 99 2.0 3.0 0.00 0.00 0.00 61 1014.2
20260905151847 94 273 0.0 3.0 0.00 0.00 0.00 61 1014.2
20260905151346 94 14 0.0 3.0 0.00 0.00 0.00 64 1014.2
20260905145846 92 15 2.0 4.0 0.00 0.00 0.00 63 1014.4
20260905145346 91 32 0.0 4.0 0.00 0.00 0.00 64 1014.3
20260905144846 91 41 3.0 4.0 0.00 0.00 0.00 63 1014.3
20260905144346 91 38 2.0 4.0 0.00 0.00 0.00 63 1014.2
20260905142346 90 40 2.0 3.0 0.00 0.00 0.00 65 1014.1
20260905141846 90 65 1.0 3.0 0.00 0.00 0.00 65 1014.1
20260905141346 90 30 0.0 0.0 0.00 0.00 0.00 67 1014.1
20260905140846 89 109 0.0 0.0 0.00 0.00 0.00 69 1014.1
20260905140346 89 253 0.0 0.0 0.00 0.00 0.00 70 1014.1
20260905134846 89 286 1.0 2.0 0.00 0.00 0.00 68 1014.1
20260905134346 88 311 0.0 0.0 0.00 0.00 0.00 69 1014.0
20260905133846 87 302 0.0 0.0 0.00 0.00 0.00 71 1014.1
20260905132846 85 164 0.0 0.0 0.00 0.00 0.00 77 1014.0
20260905132346 84 164 0.0 0.0 0.00 0.00 0.00 79 1014.0
20260905131846 83 164 0.0 0.0 0.00 0.00 0.00 79 1014.0
20260905131346 83 164 0.0 0.0 0.00 0.00 0.00 80 1014.1
20260905130846 83 164 0.0 0.0 0.00 0.00 0.00 81 1014.0
20260905130346 82 164 0.0 0.0 0.00 0.00 0.00 81 1013.9
20260905125846 82 164 0.0 0.0 0.00 0.00 0.00 83 1013.9
20260905125346 81 164 0.0 0.0 0.00 0.00 0.00 83 1014.1
20260905124846 80 164 0.0 0.0 0.00 0.00 0.00 84 1014.0
20260905124346 79 164 0.0 0.0 0.00 0.00 0.00 85 1013.9
20260905123346 78 164 0.0 0.0 0.00 0.00 0.00 87 1013.8
20260905122845 78 164 0.0 0.0 0.00 0.00 0.00 88 1013.7
20260905122346 77 164 0.0 0.0 0.00 0.00 0.00 87 1013.7
20260905121846 78 164 0.0 0.0 0.00 0.00 0.00 87 1013.6
20260905120846 77 164 0.0 0.0 0.00 0.00 0.00 88 1013.6
20260905120346 77 164 0.0 0.0 0.00 0.00 0.00 88 1013.5
20260905115846 77 164 0.0 0.0 0.00 0.00 0.00 88 1013.5
20260905115346 77 164 0.0 0.0 0.00 0.00 0.00 89 1013.6
20260905114846 76 164 0.0 0.0 0.00 0.00 0.00 89 1013.5
20260905114346 76 164 0.0 0.0 0.00 0.00 0.00 89 1013.5
20260905113346 76 164 0.0 0.0 0.00 0.00 0.00 89 1013.2
20260905112345 76 164 0.0 0.0 0.00 0.00 0.00 89 1013.2
20260905111346 76 164 0.0 0.0 0.00 0.00 0.00 89 1013.3
20260905110845 76 164 0.0 0.0 0.00 0.00 0.00 89 1013.2
20260905110346 76 164 0.0 0.0 0.00 0.00 0.00 89 1013.2
20260905105846 76 164 0.0 0.0 0.00 0.00 0.00 89 1013.1
20260905105346 76 164 0.0 0.0 0.00 0.00 0.00 89 1013.2
20260905104845 76 164 0.0 0.0 0.00 0.00 0.00 89 1013.3
20260905104346 76 164 0.0 0.0 0.00 0.00 0.00 89 1013.2
20260905103845 76 164 0.0 0.0 0.00 0.00 0.00 89 1013.2
20260905103345 76 164 0.0 0.0 0.00 0.00 0.00 89 1013.2
20260905102846 76 164 0.0 0.0 0.00 0.00 0.00 89 1013.0
20260905102345 76 164 0.0 0.0 0.00 0.00 0.00 89 1013.0
20260905101845 76 164 0.0 0.0 0.00 0.00 0.00 88 1013.0
20260905101345 77 164 0.0 0.0 0.00 0.00 0.00 88 1013.1
20260905100845 77 164 0.0 0.0 0.00 0.00 0.00 88 1013.0
20260905100345 77 164 0.0 0.0 0.00 0.00 0.00 88 1013.1
20260905095845 77 164 0.0 0.0 0.00 0.00 0.00 87 1013.2
20260905095346 77 164 0.0 0.0 0.00 0.00 0.00 87 1013.2
20260905094345 77 164 0.0 0.0 0.00 0.00 0.00 86 1013.2
20260905092845 77 164 0.0 0.0 0.00 0.00 0.00 86 1012.9
20260905091846 77 164 0.0 0.0 0.00 0.00 0.00 86 1013.1
20260905091345 77 164 0.0 0.0 0.00 0.00 0.00 86 1013.0
20260905090845 78 164 0.0 0.0 0.00 0.00 0.00 86 1013.0
20260905090345 78 164 0.0 0.0 0.00 0.00 0.00 86 1013.1
20260905085845 78 164 0.0 0.0 0.00 0.00 0.00 85 1013.0
20260905085345 78 164 0.0 0.0 0.00 0.00 0.00 85 1013.0
20260905084845 78 164 0.0 0.0 0.00 0.00 0.00 86 1013.0
20260905084345 78 164 0.0 0.0 0.00 0.00 0.00 85 1013.1
20260905083845 78 164 0.0 0.0 0.00 0.00 0.00 85 1013.1
20260905083345 78 164 0.0 0.0 0.00 0.00 0.00 85 1013.1
20260905082845 78 164 0.0 0.0 0.00 0.00 0.00 85 1013.1
20260905082345 78 164 0.0 0.0 0.00 0.00 0.00 84 1013.1
20260905081845 78 164 0.0 0.0 0.00 0.00 0.00 84 1013.1
20260905081345 78 164 0.0 0.0 0.00 0.00 0.00 84 1013.1
20260905080345 78 164 0.0 0.0 0.00 0.00 0.00 83 1013.1
20260905075845 78 164 0.0 0.0 0.00 0.00 0.00 84 1013.1
20260905075345 78 164 0.0 0.0 0.00 0.00 0.00 83 1013.1
20260905074845 78 164 0.0 0.0 0.00 0.00 0.00 83 1013.1
20260905074345 78 164 0.0 0.0 0.00 0.00 0.00 83 1013.1
20260905073345 79 164 0.0 1.0 0.00 0.00 0.00 82 1013.1
20260905072845 79 164 0.0 0.0 0.00 0.00 0.00 82 1013.1
20260905072345 79 164 0.0 0.0 0.00 0.00 0.00 82 1013.2
20260905071845 79 164 0.0 0.0 0.00 0.00 0.00 82 1013.3
20260905071345 79 164 0.0 0.0 0.00 0.00 0.00 82 1013.4
20260905070845 79 164 0.0 0.0 0.00 0.00 0.00 82 1013.4
20260905070345 79 164 0.0 0.0 0.00 0.00 0.00 82 1013.4
20260905065845 79 164 0.0 0.0 0.00 0.00 0.00 82 1013.3
20260905064845 80 164 0.0 0.0 0.00 0.00 0.00 80 1013.3
20260905064345 80 164 0.0 0.0 0.00 0.00 0.00 80 1013.2
20260905062844 80 164 0.0 0.0 0.00 0.00 0.00 78 1013.3
20260905062345 80 164 0.0 0.0 0.00 0.00 0.00 78 1013.3
20260905061345 81 164 0.0 0.0 0.00 0.00 0.00 78 1013.3
20260905060344 81 164 0.0 0.0 0.00 0.00 0.00 77 1013.3
20260905055845 81 164 0.0 0.0 0.00 0.00 0.00 77 1013.4
20260905054844 82 164 0.0 0.0 0.00 0.00 0.00 76 1013.3
20260905054344 82 164 0.0 0.0 0.00 0.00 0.00 76 1013.2
20260905053844 82 164 0.0 0.0 0.00 0.00 0.00 75 1013.2
20260905053344 82 164 0.0 0.0 0.00 0.00 0.00 75 1013.2
20260905052344 83 164 0.0 0.0 0.00 0.00 0.00 73 1013.2
20260905051845 83 164 0.0 0.0 0.00 0.00 0.00 72 1013.1
20260905051344 84 164 0.0 0.0 0.00 0.00 0.00 71 1013.2
20260905050844 84 164 0.0 0.0 0.00 0.00 0.00 70 1013.2
20260905050344 84 164 0.0 0.0 0.00 0.00 0.00 70 1013.2
20260905045914 84 164 0.0 0.0 0.00 0.00 0.00 71 1013.3
20260905044844 84 164 0.0 0.0 0.00 0.00 0.00 71 1013.5
20260905043844 84 164 0.0 0.0 0.00 0.00 0.00 70 1013.6
20260905043344 84 164 0.0 0.0 0.00 0.00 0.00 69 1013.6
20260905042844 84 164 0.0 0.0 0.00 0.00 0.00 69 1013.5
20260905042344 85 164 0.0 0.0 0.00 0.00 0.00 69 1013.5
20260905041844 85 164 0.0 2.0 0.00 0.00 0.00 68 1013.5
20260905041344 86 164 0.0 3.0 0.00 0.00 0.00 67 1013.4
20260905040345 86 167 0.0 3.0 0.00 0.00 0.00 66 1013.4
20260905035344 87 215 1.0 4.0 0.00 0.00 0.00 65 1013.5
20260905034844 87 202 1.0 4.0 0.00 0.00 0.00 65 1013.4
20260905033845 87 148 2.0 4.0 0.00 0.00 0.00 65 1013.6
20260905033344 86 187 0.0 3.0 0.00 0.00 0.00 66 1013.6
20260905032845 86 194 1.0 1.0 0.00 0.00 0.00 66 1013.5
20260905032344 85 194 0.0 0.0 0.00 0.00 0.00 67 1013.4
20260905031844 85 194 0.0 0.0 0.00 0.00 0.00 67 1013.5
20260905031344 86 194 0.0 0.0 0.00 0.00 0.00 66 1013.6
20260905030844 86 194 0.0 0.0 0.00 0.00 0.00 66 1013.6
20260905030344 86 194 0.0 0.0 0.00 0.00 0.00 65 1013.6
20260905025844 87 194 0.0 3.0 0.00 0.00 0.00 64 1013.6
20260905025345 87 194 0.0 3.0 0.00 0.00 0.00 63 1013.5
20260905024844 87 166 0.0 0.0 0.00 0.00 0.00 64 1013.4
20260905024344 87 166 0.0 0.0 0.00 0.00 0.00 64 1013.3
20260905023844 88 166 0.0 0.0 0.00 0.00 0.00 63 1013.4
20260905022844 88 132 0.0 4.0 0.00 0.00 0.00 62 1013.4
20260905022344 87 229 0.0 3.0 0.00 0.00 0.00 64 1013.3
20260905021844 87 128 1.0 3.0 0.00 0.00 0.00 64 1013.3
20260905021344 87 153 0.0 4.0 0.00 0.00 0.00 64 1013.3
20260905020844 86 148 2.0 4.0 0.00 0.00 0.00 65 1013.2
20260905020344 85 99 0.0 0.0 0.00 0.00 0.00 69 1013.3
20260905015844 85 99 0.0 0.0 0.00 0.00 0.00 69 1013.0
20260905015344 86 99 0.0 0.0 0.00 0.00 0.00 68 1013.0
20260905014844 86 99 0.0 0.0 0.00 0.00 0.00 66 1013.0
20260905014344 86 99 0.0 0.0 0.00 0.00 0.00 65 1012.8
20260905013844 86 99 0.0 0.0 0.00 0.00 0.00 66 1012.9
20260905012844 87 99 0.0 0.0 0.00 0.00 0.00 65 1012.9
20260905012344 87 99 0.0 0.0 0.00 0.00 0.00 63 1012.9
20260905011845 87 99 0.0 0.0 0.00 0.00 0.00 63 1012.9
20260905011344 87 99 0.0 0.0 0.00 0.00 0.00 63 1012.9
20260905010844 87 99 0.0 0.0 0.00 0.00 0.00 63 1013.0
20260905010344 88 99 0.0 0.0 0.00 0.00 0.00 62 1012.9
20260905005844 88 99 0.0 0.0 0.00 0.00 0.00 63 1012.8
20260905004844 88 99 0.0 0.0 0.00 0.00 0.00 62 1012.7
20260905004344 89 99 0.0 0.0 0.00 0.00 0.00 61 1012.7
20260905003844 89 99 0.0 0.0 0.00 0.00 0.00 60 1012.6
20260905003344 89 99 0.0 0.0 0.00 0.00 0.00 60 1012.6
20260905002844 90 99 0.0 0.0 0.00 0.00 0.00 59 1012.6
20260905002344 90 99 0.0 0.0 0.00 0.00 0.00 58 1012.6
20260905000844 91 99 0.0 0.0 0.00 0.00 0.00 57 1012.5
20260905000344 91 99 0.0 0.0 0.00 0.00 0.00 57 1012.3
20260904235843 92 99 0.0 0.0 0.00 0.00 0.00 56 1012.3
20260904235343 92 99 0.0 0.0 0.00 0.00 0.00 55 1012.2
20260904234844 93 99 0.0 0.0 0.00 0.00 0.00 55 1012.2
20260904234344 93 99 0.0 0.0 0.00 0.00 0.00 54 1012.2
20260904233844 94 99 0.0 0.0 0.00 0.00 0.00 54 1012.2
20260904233344 94 99 0.0 1.0 0.00 0.00 0.00 52 1012.2
20260904232843 95 99 0.0 3.0 0.00 0.00 0.00 51 1012.2
20260904232344 96 99 0.0 3.0 0.00 0.00 0.00 51 1012.1
20260904231843 96 140 1.0 3.0 0.00 0.00 0.00 47 1012.1
20260904231344 96 91 0.0 3.0 0.00 0.00 0.00 49 1012.1
20260904230843 97 89 2.0 3.0 0.00 0.00 0.00 49 1012.2
20260904225844 98 36 1.0 4.0 0.00 0.00 0.00 44 1012.2
20260904225345 98 50 1.0 4.0 0.00 0.00 0.00 44 1012.3
20260904224344 98 91 0.0 4.0 0.00 0.00 0.00 44 1012.1
20260904223344 99 66 0.0 7.0 0.00 0.00 0.00 43 1012.1
20260904222844 99 325 1.0 6.0 0.00 0.00 0.00 43 1012.1
20260904222344 99 5 1.0 7.0 0.00 0.00 0.00 41 1012.2
20260904221843 99 36 1.0 7.0 0.00 0.00 0.00 41 1012.2
20260904221344 99 355 4.0 7.0 0.00 0.00 0.00 42 1012.1
20260904220843 99 98 0.0 6.0 0.00 0.00 0.00 42 1012.1
20260904220344 99 15 2.0 6.0 0.00 0.00 0.00 42 1012.1
20260904215844 99 38 3.0 5.0 0.00 0.00 0.00 42 1012.2
20260904215343 99 24 3.0 6.0 0.00 0.00 0.00 42 1012.3
20260904214843 100 86 0.0 6.0 0.00 0.00 0.00 42 1012.2
20260904214343 99 36 5.0 7.0 0.00 0.00 0.00 41 1012.3
20260904213844 100 346 3.0 7.0 0.00 0.00 0.00 41 1012.4
20260904212843 100 11 0.0 9.0 0.00 0.00 0.00 41 1012.4
20260904212343 100 29 3.0 9.0 0.00 0.00 0.00 40 1012.5